Wind_Speed
3 3 3 6 7 9 11 11 8 4 6 6 5 4 4 5 5 3 2 4 1 1 5 5 6 9 11 8 1 2 2 2 1 1 2 2 2 2 2 2 3 3 3 6 9 10 10 10 11 12 13 15 17 18 18 18 19 20 20 22 23 24 23 23 22 22 22 22 22 23 24 25 26 24 22 22 21 21 21 19 18 18 18 17 16 16
3 4 10 9 7 9 10 8 5 4 5 5 4 4 3 4 6 4 1 4 2 2 4 1 2 9 10 7 2 1 1 1 0 0 1 1 1 1 2 2 3 2 3 6 9 11 11 11 12 12 13 15 17 19 20 20 20 20 20 21 21 21 20 20 20 20 22 23 23 25 27 27 27 26 25 25 25 23 22 21 20 20 19 18 18 18
1 6 11 6 5 6 3 5 6 4 4 3 3 3 3 3 3 5 2 3 2 3 3 3 3 9 9 4 0 1 1 1 1 1 2 1 1 1 1 1 2 2 3 4 7 10 11 11 12 13 14 15 17 18 20 20 20 21 21 22 22 21 21 21 21 21 23 25 25 26 27 27 27 28 27 27 27 24 24 24 23 23 22 21 21 21
3 7 9 5 8 7 4 3 6 4 2 3 3 3 4 3 2 3 3 2 1 2 1 2 4 9 6 2 1 1 1 2 1 2 2 2 2 1 1 1 0 1 2 2 4 8 10 10 11 12 13 13 15 17 19 20 20 21 22 22 23 23 23 23 23 23 25 26 26 27 27 27 29 29 27 26 27 26 26 26 25 25 24 23 23 22
6 6 2 6 7 7 5 3 6 5 3 4 5 6 5 4 5 6 3 2 2 3 1 1 4 7 4 2 3 1 1 1 1 2 2 1 1 1 1 1 1 1 0 1 2 4 7 9 9 10 11 12 15 16 17 18 19 20 21 22 23 23 24 25 25 25 25 26 27 28 28 28 28 28 26 27 28 27 27 27 27 26 24 23 24 23
7 4 4 7 4 6 7 4 6 7 4 4 6 10 9 7 7 5 1 3 2 3 1 2 1 4 4 4 5 2 1 1 1 1 1 1 1 1 2 1 1 1 1 1 1 2 4 6 7 9 10 12 14 15 16 17 18 19 19 20 21 22 23 23 23 23 23 24 25 26 27 27 29 30 28 29 30 29 30 30 29 28 27 27 27 27
4 2 4 7 5 6 6 4 6 7 5 3 5 9 10 7 6 5 4 3 1 3 2 2 3 3 5 6 4 1 2 3 2 2 3 3 2 2 2 2 1 1 1 1 1 2 4 5 6 8 10 11 13 13 15 17 18 19 19 19 19 20 20 20 20 20 20 22 23 24 27 29 32 33 30 29 31 32 32 31 30 30 30 29 29 29
3 2 3 5 6 6 5 5 6 7 6 3 3 5 7 7 7 7 6 4 3 2 2 1 3 2 4 6 3 1 2 5 5 5 4 4 4 4 4 3 2 2 1 1 1 2 3 4 5 7 8 10 12 13 16 18 19 19 20 20 20 20 21 21 21 20 20 22 25 27 31 33 34 34 32 30 31 31 30 31 31 30 30 29 29 28
3 5 6 7 5 5 5 4 8 10 5 4 1 5 6 6 6 5 6 3 1 2 3 3 1 1 5 5 3 3 3 7 8 7 6 6 6 5 5 5 3 3 2 2 2 2 3 4 5 6 8 10 12 14 17 19 20 20 21 21 22 22 23 23 23 23 23 24 26 29 32 34 34 33 32 30 30 29 29 29 29 29 28 28 27 27
1 4 6 8 5 5 3 1 6 9 4 3 6 7 5 5 5 4 4 3 3 1 5 5 4 3 4 4 2 2 3 8 6 5 7 7 6 6 6 5 4 3 2 3 3 3 3 4 5 7 9 11 13 15 18 20 21 21 22 22 23 24 24 24 23 23 24 25 26 28 30 32 32 31 30 29 28 27 27 28 28 27 27 26 25 25
1 2 2 4 4 5 4 3 2 3 3 6 7 6 6 5 4 3 2 3 2 3 6 6 6 4 3 4 4 3 4 5 3 3 5 6 6 7 6 5 5 4 3 3 4 4 5 5 7 8 10 12 13 16 18 21 21 22 22 23 24 24 24 24 23 23 24 24 25 26 27 29 30 28 27 26 26 25 25 26 26 25 25 25 24 23
3 1 2 2 2 4 6 5 4 3 4 5 4 4 4 3 3 3 4 3 1 5 5 4 2 4 4 4 4 5 5 5 5 5 8 10 10 9 7 6 5 5 5 4 3 5 6 7 8 9 11 12 14 16 18 20 21 22 22 22 24 24 23 23 23 23 23 23 24 25 25 26 26 24 24 24 25 23 23 24 24 24 23 23 22 21
2 3 3 1 1 4 6 5 4 3 2 4 4 5 4 2 2 2 3 1 3 6 4 2 1 3 5 6 7 7 6 6 6 4 7 11 11 9 8 7 6 5 5 5 4 4 7 9 9 10 11 12 14 16 18 19 21 21 21 22 23 24 23 22 22 22 22 23 23 23 23 23 22 22 22 22 23 22 21 21 21 21 21 20 20 19
3 4 1 3 1 3 7 6 3 1 2 4 5 5 4 2 1 2 3 2 3 4 2 2 2 2 3 5 7 7 4 3 3 2 2 5 8 9 8 7 6 6 6 5 5 4 7 10 11 11 12 13 14 16 17 19 20 21 21 21 23 23 22 21 21 21 22 22 21 20 20 20 20 20 21 21 20 20 19 18 19 19 19 19 19 18
3 4 4 6 3 5 9 7 6 6 5 4 4 5 4 4 4 4 4 3 3 2 2 2 2 3 3 3 5 3 3 3 2 2 1 1 4 6 6 6 6 7 6 5 5 6 9 12 12 12 13 13 14 15 17 19 19 20 21 21 22 23 21 20 20 20 21 21 20 19 19 18 18 19 19 19 18 18 17 17 17 18 18 17 17 16
3 5 5 2 1 7 9 4 4 7 4 2 2 5 3 4 4 2 3 4 2 2 3 2 3 3 3 2 3 2 3 3 2 1 1 2 3 6 6 7 8 7 7 6 5 7 10 13 13 14 14 14 15 16 17 19 19 20 21 21 21 21 20 19 19 19 20 20 19 18 17 17 17 17 17 18 17 16 16 15 15 16 16 15 14 13
2 4 4 1 2 3 6 4 3 3 3 2 2 4 4 3 6 3 1 1 3 1 3 2 3 4 1 3 3 4 5 3 1 2 2 4 5 7 8 8 9 9 8 7 7 7 10 13 15 16 16 16 16 17 18 19 19 20 20 21 21 21 20 19 18 19 19 18 18 17 16 16 16 15 15 16 15 15 14 14 14 14 13 12 12 11
4 2 4 1 1 2 2 4 4 2 3 6 3 5 3 2 4 3 1 2 3 3 4 2 4 3 2 2 3 4 5 6 3 2 2 4 6 9 9 9 10 9 7 7 7 8 11 15 16 17 17 17 17 18 18 19 19 20 20 20 20 21 20 19 18 18 17 16 16 16 15 15 14 14 14 14 14 12 12 12 12 12 11 11 11 11
4 1 4 0 2 1 1 3 3 4 1 4 4 3 4 3 2 2 2 2 1 3 5 2 4 4 4 4 3 4 9 9 6 4 4 7 10 10 10 11 11 9 8 8 7 7 10 15 17 18 18 17 18 18 19 19 20 20 20 19 20 20 19 19 18 17 16 15 15 15 14 14 13 13 13 12 12 10 10 11 11 10 10 10 10 10
3 3 3 1 1 1 1 2 4 3 0 2 2 2 2 2 4 3 3 3 3 2 4 3 2 3 5 6 9 11 13 11 8 7 9 11 12 11 11 11 12 11 11 9 7 6 10 16 18 18 19 19 19 19 19 20 20 21 21 20 20 20 19 18 17 17 16 14 14 14 14 13 12 11 11 11 10 9 9 9 8 7 7 7 7 8
3 3 3 1 1 2 3 4 7 9 6 3 4 4 2 1 2 1 1 3 3 3 2 3 4 3 3 4 8 10 9 9 10 10 11 10 11 11 10 10 11 11 10 7 6 7 11 15 17 18 19 20 20 20 20 21 21 21 21 21 21 20 19 19 17 16 15 14 14 13 12 12 10 10 9 9 8 7 7 6 5 5 5 5 6 7
3 4 4 3 2 4 5 5 4 6 7 6 6 7 7 5 4 2 3 2 2 2 4 3 5 5 3 2 4 4 3 4 7 8 8 8 10 10 9 8 9 8 7 6 7 9 12 15 17 19 20 21 21 22 22 21 21 21 22 21 21 20 20 19 17 16 15 15 13 12 11 11 10 9 8 7 7 6 6 5 4 4 4 5 6 7
4 3 4 3 4 5 5 3 1 2 3 3 3 5 7 6 6 5 6 3 2 2 2 3 4 5 2 2 3 3 3 3 4 5 6 6 6 7 6 6 4 4 5 6 7 10 13 16 19 21 22 23 24 24 23 23 22 23 23 22 22 21 20 18 17 16 15 14 13 12 11 10 9 9 7 7 6 6 6 5 4 4 5 6 7 8
3 3 4 2 3 3 4 4 3 1 2 2 3 3 5 5 4 4 5 3 3 4 3 2 5 5 1 2 3 2 3 3 3 5 5 4 3 5 6 5 5 5 6 7 8 10 13 17 19 20 21 23 24 25 25 24 24 24 24 23 23 22 21 19 18 17 16 14 14 12 11 10 9 8 7 7 6 5 5 4 4 5 6 7 8 9
4 4 5 2 1 3 4 2 2 2 1 3 3 3 5 5 5 2 2 3 1 5 7 5 8 6 2 2 2 2 1 1 3 3 4 4 4 4 5 5 6 6 7 7 8 8 11 15 17 19 21 23 25 26 26 26 25 25 25 25 24 23 22 20 19 18 16 15 14 13 11 10 10 9 8 7 5 3 2 2 3 5 6 7 8 10
6 4 6 7 7 7 5 5 4 3 2 2 2 4 6 8 9 5 2 3 4 4 7 7 8 5 2 1 2 3 1 0 3 3 4 5 5 5 5 6 6 7 8 9 8 8 10 13 16 19 22 23 25 26 27 27 27 27 26 26 25 24 23 21 20 19 18 16 15 14 13 12 12 10 8 6 5 3 2 1 3 5 7 8 9 11
3 2 7 10 9 8 7 6 4 6 6 5 6 8 9 9 11 7 4 5 6 4 5 9 5 3 6 2 2 5 3 3 4 4 4 4 4 5 5 6 6 7 7 8 8 8 9 11 14 18 20 22 24 25 26 27 28 28 27 27 26 25 23 22 21 20 19 18 16 15 15 15 13 11 9 8 7 6 5 4 4 5 7 8 9 10
3 3 7 8 7 6 5 4 5 6 7 9 9 9 9 8 10 10 8 7 6 5 9 9 6 5 12 6 6 7 5 4 5 4 5 5 5 5 4 5 6 7 6 6 7 8 9 10 12 16 19 21 23 24 26 28 29 29 29 28 27 25 24 23 22 22 20 19 18 18 18 16 14 13 12 11 10 9 8 7 7 7 7 9 10 11
4 4 5 5 6 4 4 3 4 5 4 5 8 10 11 11 12 13 13 10 9 8 13 8 8 11 12 6 8 8 5 5 5 5 5 5 5 5 5 5 7 7 7 8 8 9 10 9 10 15 18 20 22 25 27 29 30 30 31 31 29 28 26 24 23 23 22 22 21 21 20 18 17 16 15 14 13 12 11 10 8 8 9 10 11 12
3 3 3 5 5 5 4 4 5 6 4 3 7 11 12 11 12 13 14 11 9 10 11 5 7 12 7 5 8 7 4 4 3 3 4 5 5 5 6 6 7 6 7 8 9 9 8 8 11 14 17 20 24 27 28 30 32 33 34 34 33 31 28 26 25 25 24 24 24 23 22 21 20 19 18 17 16 15 14 12 10 10 11 11 12 14
3 2 2 4 4 6 4 6 5 6 6 6 11 12 8 6 7 10 10 6 4 8 11 7 10 11 4 5 6 4 3 4 2 2 3 4 5 5 6 6 6 6 6 8 8 8 7 8 11 14 17 22 26 28 29 31 33 33 34 34 34 32 30 28 28 27 26 27 26 25 24 24 23 22 21 20 18 17 15 13 12 12 12 12 13 14
4 2 2 3 5 5 4 7 6 2 2 6 16 12 8 6 7 8 7 7 8 11 11 9 11 9 4 5 4 3 4 4 5 5 5 5 5 6 6 7 6 6 7 7 7 7 7 8 11 15 19 22 25 27 29 31 30 30 31 32 33 33 31 30 30 29 28 28 28 27 27 26 26 25 24 22 20 18 16 14 13 13 13 13 14 16
5 4 2 3 5 2 1 4 6 4 1 9 14 10 12 13 11 6 5 10 13 13 10 10 11 6 4 6 5 5 5 6 7 7 6 6 6 6 7 7 6 7 7 7 7 7 8 10 13 17 20 22 24 26 29 29 29 29 31 32 32 32 31 31 31 30 29 29 29 29 29 28 27 26 26 24 21 19 17 15 14 13 14 14 16 17
5 5 3 3 3 1 1 4 5 3 6 7 4 3 9 15 15 11 11 14 14 11 6 3 3 4 5 7 8 8 7 6 6 6 5 5 6 6 6 7 7 8 7 6 6 6 8 11 14 17 19 20 22 23 24 26 27 29 30 29 29 30 31 31 31 31 30 30 31 30 29 28 28 27 27 25 22 19 17 16 15 14 15 16 17 18
6 5 3 2 2 1 2 4 4 6 8 3 4 3 2 6 9 12 12 12 12 11 5 2 3 6 7 7 7 6 5 3 2 4 5 5 6 6 6 7 8 7 6 5 5 6 9 12 14 15 16 17 17 17 19 21 23 25 25 25 26 27 28 30 30 31 31 31 31 30 29 28 28 28 28 25 22 20 18 16 15 15 16 17 17 18
7 6 2 2 2 2 3 4 5 4 3 2 4 4 1 4 4 3 6 9 10 11 9 8 8 8 8 6 3 2 2 1 1 3 6 6 6 7 7 7 7 6 6 8 9 10 12 14 14 13 12 12 13 14 16 17 18 21 22 23 23 24 25 27 29 29 30 30 30 30 29 29 29 29 28 25 22 19 18 16 15 15 16 17 18 19
6 6 3 3 4 3 3 5 3 4 5 4 2 2 3 5 6 6 4 8 7 8 9 9 9 10 7 3 3 2 3 3 4 5 7 8 8 8 8 7 6 7 9 11 11 11 11 11 11 10 10 10 12 13 14 14 15 17 19 20 21 22 22 24 26 27 28 28 29 29 28 29 29 29 27 24 21 19 18 16 16 16 17 18 19 20
2 4 4 5 4 4 3 3 1 3 8 7 5 4 5 6 6 7 3 4 3 7 11 10 10 11 7 4 5 4 4 3 3 6 5 6 6 6 6 7 9 10 11 11 11 10 10 10 10 10 11 11 11 12 11 12 13 14 16 18 20 21 21 22 24 26 26 27 27 27 28 29 29 27 25 22 20 18 17 16 16 17 18 18 20 21
2 1 2 3 3 3 4 4 4 5 6 3 4 3 2 5 6 8 4 4 4 7 10 10 10 10 7 6 6 6 5 2 5 6 4 5 6 6 6 7 10 12 11 10 12 12 12 12 12 12 12 12 13 13 12 12 13 13 15 16 17 19 21 22 23 24 24 25 26 26 27 27 26 25 22 20 19 17 16 16 16 17 18 18 19 21
2 1 1 3 4 4 5 5 4 4 3 2 4 4 3 4 7 8 0 6 5 6 8 10 10 9 7 8 7 6 6 6 6 6 4 5 6 8 10 9 10 13 13 12 13 13 12 13 14 15 16 16 16 15 14 14 14 15 15 15 17 18 19 19 20 20 21 22 23 24 25 25 24 22 21 19 18 16 16 16 16 17 18 18 19 21
1 0 1 4 5 6 7 6 3 3 3 3 4 5 5 3 5 4 5 5 4 7 7 8 9 7 7 9 7 6 6 6 4 3 3 6 6 7 11 12 11 13 14 14 15 15 14 16 18 19 19 19 18 17 17 17 17 17 17 17 18 19 18 18 18 19 19 20 22 23 24 24 22 21 19 18 17 16 16 16 16 17 17 18 20 21
2 1 0 3 4 4 5 4 3 4 3 5 3 2 3 3 2 3 5 2 5 8 7 6 6 7 9 10 9 7 5 4 4 3 4 6 5 5 8 10 9 11 13 13 14 16 17 18 19 20 21 20 20 20 20 20 20 20 20 20 20 19 19 18 18 18 19 20 22 23 23 22 21 19 18 17 16 16 16 15 16 17 17 18 20 21
5 4 2 4 4 1 2 4 4 4 3 9 9 2 2 4 4 4 2 1 3 6 7 6 6 7 9 9 8 8 5 4 4 4 4 5 5 4 5 8 10 11 13 15 16 19 21 20 20 22 23 22 23 23 22 22 22 22 21 22 21 20 19 19 18 19 20 21 22 23 22 21 20 18 17 16 16 15 15 15 16 17 17 18 20 21
4 4 3 4 4 4 4 6 4 1 6 12 11 5 5 5 4 5 6 3 2 3 6 6 6 7 9 9 8 8 5 4 5 5 5 5 6 5 5 7 10 12 14 17 20 22 23 23 23 24 25 24 25 25 24 25 25 24 24 24 22 20 20 19 19 20 21 22 22 22 22 20 19 17 16 16 16 16 16 16 16 17 17 18 19 21
3 4 4 3 3 4 4 4 1 2 6 9 5 2 4 5 4 5 7 5 3 4 5 5 6 7 8 8 7 6 6 7 7 6 6 7 7 7 7 9 11 14 15 18 20 21 24 26 26 26 26 26 26 27 27 27 26 26 26 25 23 22 21 20 20 21 22 23 23 22 21 19 18 17 16 16 17 17 16 17 17 17 18 18 19 19
1 2 2 1 1 2 1 2 2 1 3 7 5 1 3 4 3 4 6 5 5 6 6 6 6 8 9 8 6 5 6 8 8 7 7 7 6 7 8 9 12 15 16 17 18 20 23 25 25 24 25 26 27 29 29 29 28 29 29 27 24 23 22 21 22 22 23 23 22 21 20 19 18 17 18 17 18 18 17 17 17 18 18 18 18 19
1 2 2 1 2 3 0 2 3 2 3 7 6 1 0 1 3 4 5 4 5 6 7 6 5 6 7 7 8 8 8 8 8 8 7 7 6 7 7 10 13 16 18 19 21 22 22 22 23 24 25 27 29 30 31 31 30 31 29 26 24 23 22 22 23 24 24 24 23 22 21 20 19 19 18 18 18 18 18 18 18 18 18 17 17 18
1 3 3 2 2 2 1 1 1 1 2 4 4 3 3 3 4 4 3 2 4 5 5 5 4 6 6 7 9 10 9 8 8 8 7 6 6 6 8 12 15 17 18 20 21 21 20 21 23 25 27 29 30 31 31 32 31 31 29 27 25 24 24 24 25 25 25 24 23 23 22 21 20 20 19 19 19 19 18 18 18 18 18 17 16 18
2 3 3 2 2 1 0 1 1 3 4 4 5 6 7 5 5 5 4 2 3 4 4 4 5 6 7 8 9 9 9 9 8 8 7 7 6 7 10 14 17 19 19 19 20 21 22 24 25 26 27 29 29 29 30 32 31 31 30 29 28 27 26 26 26 26 25 24 24 24 22 21 21 20 20 19 19 19 19 18 17 18 18 16 16 17
3 4 2 3 2 2 3 5 4 2 1 5 7 9 10 7 6 5 4 4 6 7 7 6 6 6 7 9 8 8 9 9 8 8 8 7 8 10 14 16 17 18 20 20 18 19 22 24 26 27 28 28 27 27 28 30 31 31 31 31 30 29 28 28 27 26 26 26 25 24 23 21 21 20 20 19 19 19 18 17 17 17 17 17 16 16
5 6 5 4 3 4 6 8 8 5 3 5 7 8 9 7 7 7 8 8 9 8 8 8 7 7 8 9 10 11 9 8 9 10 8 8 13 16 17 17 18 19 20 20 18 19 22 24 25 26 28 28 27 26 27 29 30 32 33 33 31 30 29 29 28 27 27 27 25 23 22 21 20 20 19 19 18 18 18 18 17 16 15 15 16 16
Wind_Direction
110 126 200 217 204 192 197 198 192 158 119 130 134 136 190 220 258 242 226 291 346 96 265 246 245 264 269 269 317 360 13 83 106 51 47 33 35 27 33 26 18 26 360 4 23 32 35 43 56 68 77 83 87 90 95 100 102 103 106 109 108 109 113 114 113 113 112 109 107 104 98 92 88 87 87 84 80 78 76 74 72 69 67 64 61 58
91 178 227 227 194 185 198 193 161 123 114 115 136 169 226 222 250 260 228 310 347 178 261 309 278 266 261 265 311 11 170 123 309 78 44 33 50 22 38 22 4 7 351 15 29 31 36 46 57 68 77 83 86 87 92 96 98 102 106 108 107 109 112 111 111 111 107 105 105 102 98 95 91 89 88 86 83 83 82 79 76 74 72 70 68 65
113 225 239 220 146 133 141 166 164 166 148 120 124 164 239 227 251 288 305 331 15 175 264 7 335 272 262 246 247 13 171 184 324 139 165 173 128 69 57 28 12 13 358 13 21 24 33 44 57 68 73 79 84 88 93 96 98 102 104 105 106 107 107 106 107 108 106 105 105 103 100 98 94 90 89 89 88 86 85 83 81 79 77 76 74 72
184 248 246 172 134 124 91 127 146 140 162 165 153 170 230 215 190 270 288 322 18 142 248 9 330 280 271 247 191 16 144 152 63 118 127 144 149 147 172 175 118 63 15 17 15 19 32 45 55 62 67 76 85 91 94 97 100 102 104 105 106 107 106 107 107 106 107 107 106 105 102 100 97 94 94 93 90 87 86 84 82 80 79 78 76 74
215 250 217 126 140 149 131 132 143 149 221 228 205 200 213 202 204 231 267 315 349 21 77 107 330 293 284 271 249 286 110 142 69 114 109 106 160 155 164 183 188 171 137 33 15 13 28 43 52 59 67 77 85 90 93 97 101 104 108 110 111 112 110 110 110 110 111 111 110 108 106 103 99 95 93 89 85 84 84 82 81 80 79 79 78 76
243 238 122 112 136 156 149 172 179 172 202 265 229 208 210 207 208 220 5 30 13 338 286 141 283 287 314 293 253 282 344 270 6 142 193 261 230 162 174 204 222 152 147 103 48 23 37 51 61 69 75 81 86 91 95 101 106 110 114 117 118 117 116 115 115 116 117 115 115 115 111 105 99 91 85 84 85 85 85 84 84 83 82 81 80 79
247 235 119 131 146 159 171 218 219 172 149 271 244 203 203 195 182 179 144 114 169 247 270 118 175 251 313 305 267 281 296 272 276 236 228 240 232 207 209 221 221 170 113 105 77 60 66 68 72 74 78 85 89 95 102 107 111 114 117 119 121 121 122 123 123 125 125 122 120 116 109 104 100 96 91 91 92 91 91 90 89 87 84 83 82 80
181 142 111 144 140 153 187 231 217 161 137 239 253 161 166 170 177 180 163 174 227 255 320 14 147 209 288 287 285 327 277 271 255 234 230 227 218 217 223 222 209 201 180 165 131 79 84 82 83 85 88 93 98 104 110 112 113 116 117 118 119 120 122 125 127 129 128 123 117 111 106 103 102 102 101 99 97 96 96 94 90 88 86 84 83 81
149 167 184 168 150 179 204 219 186 160 154 242 199 117 136 151 162 153 146 179 315 353 294 292 135 200 262 271 325 20 292 271 247 217 212 215 212 211 217 217 207 201 191 187 182 129 104 101 100 101 102 105 110 112 113 114 116 118 119 120 120 120 120 123 125 124 120 116 112 109 107 105 105 105 104 103 101 99 98 95 92 90 88 86 83 82
113 206 196 157 161 200 200 270 176 164 184 194 118 93 77 71 81 91 117 122 53 9 249 237 184 202 269 279 311 39 271 262 245 207 206 205 203 205 211 208 197 196 195 189 180 158 133 124 117 115 116 116 116 116 116 117 119 120 121 122 120 118 119 119 119 117 114 113 111 110 110 109 109 109 108 107 103 101 99 96 94 91 89 86 84 82
325 277 204 148 172 183 135 64 94 128 143 139 107 76 58 44 47 53 66 91 75 270 250 230 198 190 267 274 236 202 224 214 167 185 210 197 199 206 207 200 190 191 190 187 180 165 152 140 133 131 127 124 122 121 121 120 120 121 121 120 117 115 116 116 116 114 113 113 111 111 112 112 114 114 112 108 103 101 99 96 94 91 89 86 84 82
345 338 250 197 151 125 101 67 42 63 106 112 92 96 93 10 16 26 359 51 156 251 259 259 209 173 221 256 239 230 235 197 167 184 193 192 199 201 197 195 190 190 188 186 184 172 163 153 146 143 136 131 131 128 125 124 123 122 122 121 118 116 117 117 117 116 115 114 113 113 114 114 115 115 111 107 103 101 99 97 96 93 90 86 83 80
300 229 242 250 168 138 115 85 40 25 59 89 98 116 113 346 5 355 296 246 225 246 264 283 204 194 228 247 248 239 231 214 202 194 190 193 194 189 190 192 186 189 190 188 188 180 175 168 158 152 145 141 139 134 130 128 127 127 126 125 123 120 121 121 120 119 118 116 115 116 116 115 114 113 110 107 104 102 99 98 96 91 87 83 77 73
274 285 221 154 244 188 152 146 143 178 176 154 150 142 136 133 142 249 259 259 258 257 288 286 239 243 259 263 255 241 233 228 211 217 230 208 192 185 188 185 183 194 195 191 190 185 185 180 170 161 155 150 145 139 135 133 132 132 131 130 127 124 125 125 123 122 120 117 116 117 116 115 115 112 109 107 104 102 99 95 91 87 83 79 74 69
206 280 204 174 206 187 176 177 158 146 155 178 161 134 147 160 170 214 217 213 245 277 324 301 232 194 198 270 279 263 295 315 294 259 270 255 194 173 171 176 186 200 200 194 190 192 195 186 175 169 164 159 152 145 141 139 139 138 136 135 132 130 129 129 126 124 122 119 117 117 116 115 114 112 109 106 103 101 97 93 90 87 83 79 75 69
179 265 243 217 259 171 174 182 124 116 133 200 129 110 172 191 151 162 195 173 177 309 305 240 228 222 201 268 300 322 318 307 346 7 157 201 180 157 173 191 194 204 202 194 194 199 197 187 179 176 173 167 159 153 149 146 145 144 142 140 137 134 134 132 130 127 123 122 120 119 117 115 113 111 108 106 104 101 98 94 90 87 84 80 75 69
147 276 275 17 6 171 175 176 129 135 170 152 140 171 209 181 119 114 236 70 79 276 266 196 234 292 307 284 315 360 324 283 69 50 177 193 179 174 194 199 198 206 200 195 199 196 190 184 183 184 179 173 165 160 157 153 152 151 149 147 143 139 138 136 134 131 128 128 127 124 121 117 113 110 106 105 103 100 97 92 88 85 82 79 72 63
150 254 279 123 153 256 215 139 82 24 132 125 182 207 180 133 96 104 219 353 51 242 270 210 213 246 184 244 318 354 295 257 200 165 198 197 192 195 204 203 203 204 197 198 200 192 186 184 186 187 183 178 172 166 163 159 157 156 155 154 150 146 143 141 138 136 135 134 131 126 122 117 113 109 105 102 99 95 92 86 83 79 73 66 54 43
145 193 285 229 159 255 345 111 80 358 77 136 187 180 117 149 170 112 172 217 178 238 282 259 213 222 189 201 218 212 235 234 201 178 202 207 203 203 205 205 204 199 197 202 196 184 184 185 188 187 183 180 177 172 168 165 163 160 159 157 153 150 146 144 143 141 139 137 131 125 121 116 111 107 102 97 93 89 83 76 71 64 55 48 37 27
140 179 259 299 193 184 41 152 172 207 249 74 112 123 88 151 165 154 160 164 165 209 270 271 238 230 217 197 180 193 213 208 180 186 212 212 207 205 204 201 199 198 201 199 182 176 185 189 190 186 184 184 181 178 174 171 169 166 163 160 157 153 150 148 148 146 142 139 134 127 121 115 111 106 99 95 91 85 80 73 67 58 47 37 24 12
122 187 218 282 315 162 187 213 194 184 173 148 153 168 180 117 116 177 199 133 135 164 209 271 282 245 229 201 179 193 210 194 181 196 211 213 209 211 210 203 202 202 199 185 168 179 187 188 188 185 187 188 184 182 180 177 175 171 169 167 164 161 157 154 153 151 148 142 137 132 125 121 116 110 105 103 100 94 88 81 69 56 37 20 6 357
157 180 170 162 186 194 224 251 222 193 178 173 182 181 181 168 132 164 242 199 124 175 178 207 269 253 218 194 187 196 220 209 205 208 212 215 213 213 214 209 207 201 187 173 172 182 184 183 183 185 188 189 187 186 184 182 180 177 176 175 173 170 167 163 161 159 155 148 143 139 134 131 127 123 120 117 112 103 95 85 71 56 32 12 360 351
139 127 140 178 211 217 248 296 301 210 155 140 202 186 178 182 156 170 221 214 146 214 141 118 266 270 246 211 209 218 240 241 234 228 226 229 220 215 216 211 202 185 175 174 178 182 183 182 185 187 189 189 190 189 188 186 185 184 183 181 181 179 175 172 169 166 162 156 152 150 147 146 143 138 134 129 125 117 106 92 75 56 28 12 1 352
130 123 149 230 305 318 316 333 356 20 93 140 235 183 170 194 175 173 198 161 156 198 134 121 250 256 229 220 226 237 240 237 240 232 230 235 221 210 208 198 186 177 177 181 182 182 183 184 188 190 190 191 192 192 192 191 190 189 189 188 187 185 181 177 175 172 170 166 163 163 163 162 160 158 157 153 145 132 113 85 57 37 14 4 355 348
184 166 144 139 347 338 332 318 305 314 231 211 216 172 180 171 122 106 132 105 206 197 150 179 244 243 209 227 262 294 276 253 264 240 216 217 213 204 197 191 190 185 181 183 181 178 182 186 190 193 194 195 195 195 196 195 196 195 194 193 192 189 185 182 181 179 178 177 176 176 178 180 182 181 180 176 167 154 124 60 24 10 359 351 346 345
186 182 162 171 194 202 209 212 210 199 187 214 183 167 192 178 158 162 144 155 226 194 155 202 246 264 295 338 305 302 16 270 263 239 212 214 208 200 191 187 190 189 189 188 183 184 188 192 196 197 198 198 197 197 198 198 199 199 199 199 197 194 189 186 186 185 185 187 188 188 192 196 197 196 197 199 202 210 233 304 333 341 342 340 340 342
157 198 197 202 213 204 196 205 184 142 152 196 197 181 194 196 183 173 144 183 200 163 199 225 213 250 268 235 225 261 240 216 235 221 216 221 210 208 199 192 196 197 198 194 187 190 195 198 200 199 199 199 199 199 200 201 203 203 203 203 202 200 196 192 190 190 192 194 197 201 206 207 207 209 212 218 225 236 251 271 295 314 325 329 333 336
115 226 214 214 233 212 169 172 171 157 173 192 193 191 197 196 186 186 198 203 154 144 239 235 148 213 250 213 190 233 227 217 234 220 215 214 204 205 195 191 201 203 203 199 195 199 201 202 201 198 198 199 199 201 203 205 207 208 207 207 206 204 202 198 196 195 197 201 205 210 214 215 216 218 223 229 234 243 251 262 278 296 308 317 324 329
142 220 211 191 227 209 135 136 167 162 171 186 191 202 205 198 190 196 211 207 166 190 243 233 165 219 244 196 189 215 195 191 216 210 198 188 181 187 183 192 204 204 202 205 208 209 208 206 198 194 197 198 198 203 206 207 209 210 211 211 210 209 207 205 203 201 203 207 212 216 219 219 221 223 228 233 237 243 251 257 270 286 299 309 318 326
163 225 189 168 229 235 171 159 168 170 178 195 211 216 213 206 196 199 214 211 193 223 254 249 212 234 234 172 197 214 178 167 181 155 152 164 179 185 188 204 212 207 205 211 217 217 212 208 200 195 197 199 202 206 207 208 210 211 212 212 212 213 212 210 209 209 210 214 218 221 222 222 224 226 230 234 238 244 250 256 267 282 294 305 315 323
197 220 139 144 230 246 183 154 172 190 190 213 234 227 201 180 190 205 220 207 187 244 256 253 252 255 229 165 190 203 151 127 131 161 172 188 198 190 199 219 221 211 212 218 221 218 214 211 203 199 201 205 208 209 209 211 212 213 213 213 213 215 215 214 214 215 216 219 222 223 225 225 225 228 231 234 238 243 248 256 268 279 292 305 313 318
190 201 83 130 214 230 159 154 173 157 95 254 252 231 169 172 205 203 206 193 195 224 232 234 249 252 210 163 178 189 171 167 199 210 203 213 210 197 210 224 222 219 220 220 218 214 212 210 205 205 208 211 213 213 214 214 214 213 214 214 216 218 216 216 218 219 220 223 224 226 227 227 226 228 231 234 238 242 248 257 267 280 293 304 310 313
167 164 134 167 199 227 77 144 145 100 52 260 252 210 178 208 220 185 190 211 210 213 215 224 237 230 156 160 187 199 194 204 224 220 209 219 216 210 221 225 225 231 229 222 217 212 212 213 212 213 215 216 216 218 219 217 215 217 219 220 221 220 217 218 220 221 223 225 227 228 228 228 227 228 230 233 236 241 248 258 269 282 293 300 306 310
153 157 165 176 176 185 42 99 113 162 228 247 261 167 189 216 216 201 210 216 210 209 209 214 213 163 146 173 193 203 202 206 220 216 208 215 209 209 221 224 227 234 233 228 222 216 215 215 215 218 219 221 222 224 224 222 222 225 225 224 223 220 219 220 221 223 226 227 229 229 229 229 228 228 230 232 235 241 249 259 270 282 291 299 305 308
161 164 164 149 144 139 101 107 150 219 235 264 350 351 238 224 213 212 223 222 208 208 215 194 175 182 193 199 197 203 204 196 213 215 213 215 199 189 201 220 228 229 227 228 225 220 217 212 212 216 218 221 224 223 223 224 225 227 225 224 224 222 221 223 223 226 228 228 230 230 230 230 228 227 229 230 234 241 250 261 272 282 291 298 303 307
168 169 148 128 141 116 122 177 205 244 274 321 337 325 32 81 114 177 243 244 217 201 203 209 214 220 221 209 179 155 154 128 303 238 219 219 205 187 196 216 218 210 212 215 210 209 210 207 207 209 208 208 210 211 216 219 220 222 223 224 225 225 225 225 226 228 229 230 232 232 232 231 228 226 227 229 234 242 251 262 273 283 292 298 302 305
174 170 157 171 183 148 161 208 240 327 294 258 253 237 178 147 147 156 210 253 229 183 180 196 217 232 230 182 127 120 107 61 335 275 228 216 209 203 210 218 210 209 218 219 212 209 207 203 199 196 190 188 192 197 203 207 211 216 219 221 224 225 225 226 228 231 232 233 235 235 233 231 227 225 226 229 235 244 253 264 275 285 293 297 301 303
177 176 177 196 197 153 165 221 257 286 263 240 208 202 177 160 160 145 151 272 244 179 179 185 204 223 216 143 132 137 103 68 299 273 245 218 207 206 219 226 221 222 225 221 212 205 196 191 186 184 181 181 186 191 192 195 202 209 214 219 223 224 224 227 231 234 235 237 237 235 232 228 225 224 226 230 238 247 258 269 279 288 292 296 300 302
74 82 172 195 195 160 181 222 221 230 249 229 199 219 184 153 131 97 65 292 241 191 183 178 195 215 197 153 149 141 119 148 247 260 250 211 196 191 199 215 223 227 230 219 207 201 194 188 183 182 183 186 189 187 183 187 197 204 212 219 222 222 226 231 238 240 239 240 238 233 229 225 223 224 228 234 243 252 263 274 281 287 292 295 298 301
93 67 169 204 209 190 197 224 234 241 264 222 199 213 212 169 114 94 12 269 232 193 179 172 192 208 173 147 151 153 162 191 226 243 221 182 178 188 195 200 206 214 219 212 204 204 201 194 189 187 190 195 195 189 187 193 201 207 215 220 219 223 231 240 244 243 240 239 234 228 225 222 222 225 231 238 248 258 268 276 282 286 290 293 297 300
112 131 192 215 221 213 212 229 257 257 242 220 206 197 184 135 87 122 224 236 180 184 185 176 187 184 151 151 164 185 201 201 201 212 173 147 151 187 206 211 209 210 213 211 208 207 203 199 197 196 199 201 198 196 200 203 207 212 217 218 219 227 238 244 243 240 235 232 227 222 221 220 222 228 235 243 253 263 269 276 281 285 289 293 297 299
158 144 181 217 219 221 220 233 269 267 208 152 140 180 180 137 124 207 225 188 156 176 188 188 181 166 161 171 183 201 204 171 156 166 161 162 171 191 205 211 214 217 217 216 215 211 205 203 202 203 207 207 203 206 210 210 212 216 216 217 225 234 239 239 237 234 229 224 220 218 218 220 224 230 239 248 256 263 269 275 279 284 289 293 296 299
164 152 186 204 188 162 211 218 238 264 185 137 122 99 244 202 192 190 158 97 150 161 170 189 190 177 175 180 199 215 198 143 163 192 187 199 220 220 202 197 205 216 216 212 213 210 205 205 208 210 213 214 213 215 216 214 216 217 216 222 231 235 235 234 232 227 222 219 218 218 219 222 227 234 242 251 259 263 269 274 278 283 288 291 294 298
177 166 193 208 183 154 187 213 219 199 173 160 146 156 206 193 171 156 146 146 185 163 167 187 198 193 186 184 200 214 203 185 207 208 200 222 234 232 226 214 213 222 224 218 216 212 207 208 213 217 219 220 220 220 220 219 219 218 220 228 233 231 230 229 225 220 219 218 217 218 221 224 231 239 246 253 259 263 267 272 276 281 285 289 294 298
200 173 177 198 195 177 179 195 188 121 175 182 175 177 181 164 154 156 144 143 184 187 175 186 194 196 196 193 193 197 199 211 217 202 199 217 221 217 224 226 225 231 234 229 222 216 212 214 217 222 225 225 224 224 224 223 220 220 226 231 230 227 226 224 220 218 218 218 218 219 224 228 234 242 248 252 257 261 265 270 274 279 283 288 293 297
183 147 156 147 215 249 214 140 141 117 183 203 220 226 132 145 163 156 141 154 187 183 174 186 191 190 193 189 182 192 211 215 213 211 214 220 222 218 218 227 235 237 237 234 228 221 219 220 222 226 230 231 229 227 227 225 223 224 230 232 227 224 224 220 218 218 217 218 219 222 226 232 237 242 247 251 256 260 264 268 272 277 282 287 291 294
231 144 137 132 215 242 296 113 142 155 192 207 217 229 76 202 186 165 161 174 179 178 186 194 181 172 178 177 182 205 221 214 205 214 220 217 223 226 218 223 234 236 235 236 234 228 224 222 223 226 230 233 234 231 229 228 226 226 230 230 225 222 221 218 218 218 217 218 220 224 228 233 237 241 245 250 254 258 262 266 270 275 279 284 288 291
212 138 143 197 208 192 156 202 247 295 272 236 222 220 238 227 197 201 211 157 134 159 186 188 158 147 162 181 193 208 221 216 205 211 217 216 223 227 221 224 232 237 240 241 237 230 225 224 227 228 230 234 237 235 231 230 228 226 226 226 223 220 217 217 218 218 219 220 222 226 230 234 237 241 245 248 253 256 259 263 268 272 276 281 285 287
134 149 173 171 150 119 8 246 314 8 339 288 246 234 237 217 190 211 228 164 150 169 176 191 195 176 180 196 197 200 215 220 209 205 212 220 226 227 225 228 232 237 242 244 240 233 228 229 231 232 234 239 241 239 235 233 230 226 224 224 222 218 215 216 217 217 218 220 222 226 230 234 238 242 244 247 251 255 258 262 266 270 274 278 280 284
135 175 179 118 134 232 214 182 170 142 250 239 224 226 232 212 174 185 200 194 206 204 184 194 218 214 214 218 201 189 210 223 212 202 213 225 229 229 229 231 234 239 244 246 244 237 233 234 236 237 240 244 245 241 238 235 230 225 223 222 220 216 215 215 214 214 217 220 223 226 230 234 239 243 245 248 252 255 259 262 265 269 276 281 283 286
178 194 181 152 182 218 195 183 183 179 203 224 215 216 224 203 169 190 212 212 215 210 188 188 206 218 232 234 212 195 206 224 214 203 210 234 238 236 236 235 235 239 244 243 238 235 235 237 237 238 242 246 245 241 239 237 230 224 222 220 217 215 215 214 213 213 217 221 224 227 231 236 240 244 247 250 254 259 263 264 264 265 272 278 282 281
Height
837 840 842 837 837 839 838 837 836 837 842 844 846 847 847 845 843 844 846 848 849 845 841 842 843 841 836 836 847 858 858 856 857 861 863 864 865 865 866 866 865 865 865 864 863 862 861 859 857 855 854 853 851 851 851 850 850 849 848 847 846 847 847 847 848 848 848 849 850 851 852 853 854 854 854 854 855 855 856 857 857 857 858 859 859 860
840 841 836 829 831 835 836 838 839 841 843 844 847 848 849 851 846 843 846 848 850 847 843 847 847 842 837 838 849 857 854 854 859 861 862 863 865 866 866 866 865 865 865 864 863 863 862 860 859 857 856 854 853 852 851 852 852 851 850 849 849 849 849 849 849 849 849 851 851 852 854 855 856 856 856 856 857 857 858 858 858 858 859 860 860 860
845 841 831 829 834 836 839 842 841 843 845 846 849 851 850 852 849 846 849 851 851 847 843 848 848 838 835 841 851 858 854 857 863 861 861 862 862 865 864 864 865 864 865 864 864 864 863 862 860 859 858 856 855 853 853 853 853 853 853 852 851 850 850 850 851 851 851 852 853 854 855 856 857 858 858 859 859 859 859 859 860 860 860 861 861 862
844 836 829 832 834 835 840 844 844 845 847 847 849 850 849 851 849 843 846 851 851 850 848 849 848 837 834 841 850 859 860 860 864 862 862 863 861 862 863 863 863 863 863 864 864 864 863 862 861 860 860 858 857 855 855 855 855 855 855 854 853 853 852 852 853 853 853 854 854 855 856 857 858 860 861 861 861 861 860 861 861 861 862 862 862 863
832 830 833 835 833 833 838 845 846 845 847 848 848 847 845 846 846 842 845 849 848 853 853 850 848 837 830 834 840 855 862 860 862 862 861 861 861 862 862 861 861 862 862 862 862 863 862 862 862 861 861 860 859 857 857 856 856 857 857 856 856 855 854 854 855 855 855 855 855 856 857 858 859 860 862 861 862 863 862 863 863 863 864 864 864 864
829 830 834 833 835 836 837 842 844 842 845 846 843 841 840 838 841 844 847 848 847 849 849 849 845 832 827 827 833 849 858 857 860 861 859 860 861 861 860 860 861 861 862 862 862 862 862 862 862 861 861 860 859 859 859 858 858 859 859 859 858 857 856 856 857 857 857 857 857 857 858 858 859 860 863 864 865 865 865 865 866 866 867 866 866 866
830 832 831 830 834 836 837 840 841 842 845 845 839 836 839 840 842 845 846 847 846 845 849 854 845 835 829 819 828 850 854 853 858 858 857 859 859 860 859 859 861 861 862 862 862 862 862 862 861 861 861 861 860 860 860 860 860 860 860 860 860 858 858 858 858 859 859 859 858 858 858 859 859 861 865 867 868 868 868 868 868 869 869 869 869 868
828 832 833 831 832 836 837 837 838 841 842 841 840 839 840 841 842 845 845 845 845 845 850 854 846 845 840 823 832 853 847 843 850 852 855 857 857 858 858 859 860 861 861 861 862 862 862 862 861 862 861 861 862 861 861 861 861 862 862 862 861 860 860 860 860 861 861 860 860 859 859 861 861 862 866 869 869 870 870 869 869 870 871 871 871 871
828 828 830 830 832 836 834 832 835 838 835 838 847 849 844 843 844 846 846 847 852 851 847 848 849 849 842 829 837 850 837 826 831 842 850 852 854 856 855 858 859 860 861 861 861 861 862 862 861 862 862 862 862 862 861 862 862 863 864 863 863 862 862 862 862 862 862 862 861 861 860 862 864 866 868 870 870 871 871 870 871 872 872 872 873 873
829 830 829 828 829 830 831 835 839 833 831 842 852 851 848 851 852 851 851 849 855 856 844 841 844 843 836 825 830 839 829 814 819 837 846 846 851 854 853 856 857 859 860 860 861 861 861 861 861 862 862 863 863 863 862 862 863 864 865 865 864 864 864 864 864 863 863 863 863 863 862 863 866 868 869 871 872 873 873 872 872 873 873 874 874 874
831 835 833 828 826 829 833 843 847 840 840 846 845 842 844 849 850 852 854 852 854 852 841 839 840 838 837 825 819 824 819 812 817 831 842 846 848 850 851 854 855 857 858 859 860 860 860 860 861 861 862 863 863 863 863 863 865 866 867 867 866 866 867 866 867 866 865 866 865 865 865 865 867 869 870 871 873 874 874 873 873 873 874 874 875 876
831 832 830 827 830 833 833 840 848 849 850 844 835 837 842 845 848 851 853 854 854 843 838 849 850 843 838 822 811 815 817 819 817 816 827 839 843 845 849 852 853 855 856 857 858 858 859 859 859 861 861 862 863 863 864 864 865 867 868 868 867 868 869 868 869 868 867 868 868 868 868 868 869 870 871 872 873 875 875 875 874 874 874 875 876 876
827 825 825 827 831 830 826 833 845 848 848 842 835 838 842 847 852 851 851 856 853 841 843 855 850 841 835 816 805 807 810 819 822 819 826 833 838 843 847 850 852 854 854 855 857 857 858 858 858 860 861 862 863 863 864 864 866 868 869 869 868 869 870 870 870 870 869 870 870 870 870 870 871 871 872 872 874 875 876 876 875 874 874 875 875 876
824 823 825 825 825 824 819 824 834 838 841 840 835 835 839 847 852 848 852 857 848 839 849 857 846 837 828 811 805 808 813 824 832 834 836 835 838 842 844 848 850 852 853 854 855 856 856 857 858 859 860 861 862 862 864 865 866 868 869 870 869 870 871 871 871 871 871 871 872 872 872 872 873 872 873 873 874 875 876 876 875 874 874 874 876 877
823 816 815 817 816 817 814 816 820 825 835 838 833 833 834 835 836 836 838 838 832 835 849 856 841 822 811 812 822 828 832 839 839 840 842 840 841 842 844 848 849 850 852 852 854 855 855 856 857 858 859 860 861 862 863 865 866 868 869 870 869 870 871 872 872 872 872 872 873 874 874 874 874 873 873 874 875 876 876 876 876 875 875 875 877 878
825 811 808 816 817 814 813 815 818 820 830 838 838 835 832 825 824 835 845 843 839 839 844 846 831 814 810 820 835 839 836 838 840 841 842 840 841 843 844 846 847 848 849 851 853 853 854 855 856 857 858 858 860 861 863 864 866 868 868 870 870 870 871 872 872 872 872 873 874 874 875 875 875 875 874 875 876 877 876 876 876 876 876 877 878 879
821 812 812 819 818 817 816 815 817 816 819 834 838 829 829 828 822 832 851 859 856 842 832 832 823 815 816 816 824 832 826 828 837 840 839 839 842 842 841 843 844 845 846 848 850 851 853 854 855 856 857 857 859 860 862 864 866 867 868 869 869 870 871 872 872 873 873 874 874 875 875 875 876 876 876 876 877 877 877 876 876 877 878 878 879 880
805 806 813 817 812 819 825 818 817 818 817 827 830 821 826 832 826 827 835 846 853 842 827 825 818 812 811 808 816 826 818 815 828 837 839 841 842 840 838 839 840 842 844 846 848 849 852 853 854 855 855 857 858 859 862 864 865 867 868 868 869 869 871 872 872 873 874 874 875 875 876 876 876 877 877 877 877 877 877 877 877 878 879 879 879 880
796 799 811 821 816 819 825 817 815 822 821 819 819 817 821 823 824 830 831 831 839 837 824 819 818 813 807 804 809 815 808 805 819 835 838 836 837 837 835 836 838 840 842 843 845 848 850 851 852 853 854 855 858 859 862 863 865 866 867 868 869 869 870 871 872 873 874 875 875 875 876 876 877 878 877 877 877 878 877 877 878 878 879 879 879 880
795 796 805 820 821 818 820 816 813 818 822 821 820 821 819 817 818 823 827 825 826 829 822 812 809 806 799 797 796 796 798 802 813 825 827 828 832 831 830 832 834 836 837 839 843 846 848 849 850 851 853 854 856 859 861 862 864 865 867 868 868 869 870 871 872 873 873 874 875 875 876 877 878 878 877 877 878 878 878 878 879 879 880 880 880 881
796 796 801 817 824 819 813 809 805 805 812 817 817 820 820 819 820 821 822 823 820 820 820 816 808 798 795 800 794 787 795 804 807 809 814 823 828 827 828 829 829 832 834 837 842 844 846 847 848 849 851 853 855 858 860 861 863 865 866 867 867 868 869 870 871 872 873 874 874 875 876 877 878 877 877 878 878 878 879 879 880 880 880 880 881 881
792 795 799 812 820 812 803 803 805 802 801 803 804 808 809 810 816 819 821 823 823 818 814 816 809 791 795 812 807 799 806 811 811 809 812 820 824 825 828 828 828 831 834 837 840 842 844 844 846 848 849 852 854 856 858 860 862 863 865 866 866 867 868 868 870 871 872 873 873 875 876 877 877 877 878 878 878 878 878 879 879 879 880 880 880 881
786 792 797 804 810 807 804 811 817 811 803 801 801 801 801 801 803 806 811 817 823 821 818 822 813 794 802 821 816 812 816 816 819 818 816 820 823 825 828 828 831 833 834 838 839 840 842 842 843 845 847 850 852 854 856 858 860 862 863 864 865 865 866 867 868 870 870 871 872 874 875 876 877 877 877 877 877 878 878 878 879 879 879 879 879 879
783 787 793 799 804 806 808 812 816 814 806 800 800 802 802 800 797 799 805 809 813 814 816 824 814 794 805 822 819 819 821 818 821 821 818 821 823 825 828 829 831 833 834 837 838 839 840 840 842 843 844 847 850 852 855 856 858 860 861 862 863 863 864 865 867 868 869 870 871 873 874 875 875 876 876 877 877 877 878 877 878 878 878 878 878 878
777 781 788 798 805 808 809 808 808 809 806 799 799 802 800 798 801 807 811 812 811 807 807 812 801 787 801 819 817 817 818 812 815 820 820 822 821 823 827 828 829 831 832 834 836 837 838 838 839 841 842 845 847 850 853 854 856 858 858 860 861 861 863 863 865 866 867 869 870 871 873 873 874 875 875 876 876 876 876 876 876 876 876 876 876 876
771 775 778 785 792 796 796 794 792 795 800 801 801 802 799 798 801 802 805 810 810 807 804 800 792 786 796 807 806 806 807 802 807 816 818 819 820 822 824 826 827 829 830 831 832 834 834 835 837 838 839 842 844 847 850 851 854 855 856 858 859 860 860 861 862 864 865 867 868 869 871 872 873 873 874 874 874 874 875 875 875 875 875 874 874 873
770 772 770 768 770 772 771 773 777 780 786 792 794 795 795 797 798 796 800 803 802 806 803 791 788 789 789 794 798 797 797 796 800 809 814 816 819 820 822 824 825 826 827 828 829 830 831 832 833 835 837 839 842 844 847 849 851 853 854 856 858 859 858 858 859 861 863 864 866 867 869 870 871 871 872 872 872 873 873 873 873 873 873 873 872 872
771 772 770 766 766 768 765 768 776 776 775 779 784 789 793 798 800 797 796 792 793 803 798 784 789 791 783 787 793 789 790 795 798 803 808 813 816 818 820 822 823 824 825 826 827 827 828 829 830 833 835 837 840 842 844 847 848 850 852 854 856 858 857 857 857 858 860 862 864 865 866 867 869 869 870 870 871 871 872 872 872 871 871 871 870 870
769 770 769 768 770 771 771 774 777 775 774 776 778 781 785 792 799 798 793 789 789 791 785 780 787 787 780 784 788 785 788 792 795 801 806 810 814 816 818 819 820 821 822 823 824 824 824 826 828 830 832 835 837 839 841 843 845 847 849 850 853 855 855 855 855 856 858 859 861 863 864 865 867 867 868 869 869 870 870 870 870 870 869 869 868 868
769 769 769 768 769 770 774 779 779 775 776 778 777 776 778 785 794 794 790 789 790 786 780 782 787 783 781 785 785 788 794 796 798 805 807 808 811 812 813 814 815 818 820 820 820 821 822 824 825 828 830 832 834 836 837 839 841 842 844 845 848 851 852 853 854 854 855 857 858 860 862 863 864 865 866 866 867 868 868 868 868 868 868 867 866 865
770 771 771 771 771 772 776 780 780 776 777 777 774 775 780 787 795 798 794 793 797 794 787 790 791 786 785 786 786 793 800 800 800 802 803 805 807 807 808 808 811 815 817 817 818 819 821 822 824 826 828 828 830 831 833 835 836 838 839 841 844 846 849 850 851 852 853 854 856 858 859 861 862 863 863 864 865 865 866 866 866 866 866 864 864 863
772 776 777 775 772 771 777 782 782 784 789 786 777 777 786 787 786 791 794 791 790 788 789 795 793 784 784 787 789 794 798 798 796 797 801 805 806 806 806 806 809 812 813 814 816 817 818 820 821 822 823 824 826 828 829 831 833 835 836 838 840 843 845 847 848 849 850 851 854 855 857 858 859 860 861 861 862 863 864 864 864 864 863 862 861 860
773 773 775 776 770 773 787 790 786 791 793 778 763 765 775 777 776 784 790 787 782 779 783 787 780 774 782 789 790 793 797 797 795 796 799 800 803 806 806 806 808 808 809 811 813 814 815 816 817 818 819 821 822 824 826 827 830 831 833 835 838 840 842 844 845 846 848 849 851 852 854 855 856 857 858 859 860 861 862 862 862 861 860 859 858 857
772 769 773 774 770 783 802 798 790 789 775 757 755 761 764 764 768 777 780 778 778 777 776 777 776 777 784 786 785 788 792 794 795 797 799 799 800 803 805 806 807 806 807 810 810 812 813 813 814 816 817 818 820 821 823 825 827 828 830 833 835 837 839 841 842 844 845 846 848 849 851 852 853 854 855 856 857 858 859 859 859 858 857 856 855 854
771 771 774 774 775 791 805 798 786 774 758 758 772 777 770 764 764 768 771 772 776 779 777 778 780 780 780 781 784 786 789 794 798 799 800 800 800 801 803 803 803 804 806 808 808 809 810 811 812 814 814 816 817 819 821 823 824 827 829 831 833 835 837 838 840 841 842 843 845 846 848 849 850 851 852 853 855 856 856 856 856 855 854 853 852 851
767 769 771 776 784 793 799 792 774 759 758 769 779 778 775 772 770 772 774 771 773 778 778 778 779 778 778 783 789 792 795 798 800 800 800 800 800 801 800 798 800 803 804 804 805 806 807 808 809 811 812 814 816 817 819 820 823 825 827 829 831 833 834 836 837 838 839 841 842 843 845 846 847 848 849 850 852 853 853 853 853 852 851 850 849 849
764 764 766 772 778 780 785 784 770 761 761 760 762 766 767 764 764 767 766 763 766 774 778 778 777 777 780 786 792 797 799 799 796 794 794 796 797 797 797 797 799 801 802 802 803 804 805 807 808 809 811 812 814 815 817 819 821 823 825 827 829 830 832 833 834 835 836 838 839 840 841 842 843 845 846 847 849 850 850 850 850 849 848 847 846 846
766 764 762 764 766 769 775 777 773 770 757 742 746 759 761 759 760 761 761 763 766 772 775 775 774 775 779 788 795 798 798 795 790 787 788 793 795 796 797 798 799 800 800 801 802 803 804 805 807 808 810 811 812 814 816 818 820 821 823 825 826 828 829 830 831 832 833 834 836 837 838 839 840 842 843 845 846 847 847 847 846 845 844 844 843 842
771 769 765 763 765 769 771 767 763 758 746 740 750 762 765 764 759 760 769 771 765 768 775 774 772 773 777 787 795 795 794 792 786 783 786 790 793 795 796 797 798 798 799 799 800 802 803 804 806 807 808 810 811 813 815 817 818 819 821 822 824 825 826 827 828 829 830 831 832 834 835 836 838 840 841 843 843 843 843 843 842 842 841 841 840 839
772 773 771 767 764 766 766 762 756 748 745 751 759 765 769 766 758 762 774 768 761 771 778 772 768 772 779 788 794 792 788 784 780 780 785 788 791 793 794 794 796 796 796 798 799 800 802 803 804 805 807 808 810 812 813 815 816 817 819 820 821 822 823 824 825 826 827 828 830 831 832 834 836 837 839 839 840 840 840 840 839 839 838 838 837 836
775 775 774 767 762 762 762 759 755 750 753 761 765 767 769 766 763 766 765 757 759 773 778 770 768 774 782 788 789 785 780 780 780 781 785 787 789 791 791 791 793 794 795 796 797 799 800 801 802 804 805 807 808 810 811 813 814 815 816 817 819 819 820 821 822 823 824 825 827 828 830 831 833 835 835 836 836 836 836 837 836 836 835 835 834 833
771 774 775 770 764 763 761 760 757 751 752 761 767 771 771 767 765 763 758 756 760 765 772 774 772 776 782 783 783 779 776 780 784 783 784 786 786 787 789 790 791 792 793 795 796 797 799 800 801 802 803 805 807 808 809 810 811 812 813 814 815 816 817 818 819 820 822 823 824 826 827 829 830 831 832 833 833 833 833 834 833 833 832 832 831 830
755 762 768 765 761 763 767 766 759 748 750 760 766 769 768 762 756 754 757 763 764 763 771 775 774 777 780 777 778 780 778 782 785 783 784 786 786 786 788 788 789 791 791 793 794 795 796 798 799 800 801 803 804 805 806 808 808 809 810 811 811 813 814 815 816 818 819 820 822 823 825 826 827 828 829 829 830 830 830 830 830 830 829 829 828 827
744 750 755 750 748 755 759 755 747 743 749 755 754 752 753 753 752 752 753 759 765 769 772 771 771 778 778 771 773 779 780 782 784 783 784 786 785 786 787 786 788 789 789 790 791 792 794 795 796 797 799 800 801 802 803 804 805 806 807 807 808 810 811 812 814 815 816 818 819 821 822 823 824 825 826 826 826 827 827 827 827 827 826 826 825 823
736 742 744 739 738 743 742 741 743 749 754 752 746 744 747 750 754 754 751 754 761 768 770 768 768 774 776 772 773 776 778 780 780 781 783 782 781 784 784 784 786 786 786 788 789 790 791 792 793 794 795 796 798 799 799 801 802 802 803 803 805 806 807 809 811 812 814 815 817 818 819 821 822 822 823 823 823 823 824 824 824 823 823 822 822 820
740 746 742 737 738 739 740 745 750 752 754 751 748 749 751 751 754 755 753 754 757 762 766 766 764 768 773 774 774 775 776 777 777 779 780 779 780 781 782 782 783 783 784 786 786 788 789 789 790 792 792 793 794 794 795 797 797 798 799 799 801 803 804 806 808 809 811 812 814 816 816 817 818 819 819 820 820 820 820 820 820 820 819 819 818 817
744 747 742 739 738 735 738 748 751 750 751 752 751 751 752 752 755 756 754 753 756 760 764 764 763 766 771 773 773 773 772 773 776 777 777 777 778 779 780 781 781 781 782 783 783 785 786 787 788 788 788 789 789 790 791 792 793 794 795 796 798 800 801 803 804 806 807 809 810 812 813 814 815 815 815 816 816 816 816 816 816 816 815 815 815 814
737 741 742 741 740 739 744 753 755 752 753 753 752 751 751 750 754 757 756 756 759 761 763 764 765 767 769 770 771 770 770 772 774 773 774 775 776 776 778 778 777 778 779 779 780 782 783 784 784 784 784 784 785 786 787 788 789 791 792 793 795 796 797 799 800 802 804 805 807 808 809 810 811 811 812 812 812 812 813 813 813 812 812 812 812 811
734 738 740 741 743 747 751 755 755 752 750 750 751 751 750 750 752 755 757 759 760 761 763 764 765 766 766 767 768 768 768 769 771 771 772 772 773 774 775 774 774 775 775 776 777 778 779 780 780 780 780 780 780 782 783 783 785 787 788 789 791 792 793 795 796 798 800 801 803 804 805 806 807 808 809 809 809 809 809 809 809 809 808 809 809 808
735 734 738 742 742 743 744 747 748 745 742 743 746 746 747 750 753 754 756 757 758 759 761 762 763 765 766 765 765 767 766 765 768 770 770 769 770 770 771 771 772 772 771 773 774 775 775 776 776 776 777 776 777 778 778 779 781 782 784 785 786 787 789 791 792 795 796 797 799 800 801 802 803 804 805 806 806 806 806 806 806 806 805 805 806 805
731 727 730 735 734 734 736 738 741 739 736 737 741 743 744 748 752 753 753 753 754 756 758 760 760 762 763 763 764 765 764 763 765 767 767 767 766 766 767 768 768 768 768 769 770 771 772 772 773 773 773 772 773 774 774 776 777 778 779 780 782 784 785 787 788 790 792 793 795 796 797 799 800 801 802 802 803 803 803 803 804 804 803 803 803 803